Portada
METAR-TAF:

METAR-TAF

Aeroports :

Grinnell, Iowa, Estats Units d'Amèrica

latitud: 41-42-35N, longitud: 092-44-09W, altitud: 307 m

Observació

L'informe es va fer fa 22 minuts, a les 17:15 UTC
Vent 5 kt del Nord/Nord-Est
Temperatura 16°C
Humitat 88%
Pressió 1021 hPa
Visibilitat: 16.1 km
Cel cobert a una alçada de 900 ft

METAR: KGGI 201715Z AUTO 03005KT 10SM OVC009 16/14 A3015 RMK AO2 T01610138

Hora: 12:37 (17:37 UTC)


TAF: manca

Observacions i pronòstics meteorològics de més de 4000 aeroports (METAR i TAF).

Les estacions disponibles són els punts grocs i vermells al mapa.

Posi el ratolí al punt desitjat per veure el nom de l'estació.

Feu clic per veure les observacions i els pronòstics meteorològics.

Per canviar el mapa: feu clic els botons verds amb una creu de color negre per apropar; al botó verd amb un guió per allunyar la imatge; o en les fletxes verdes per a mapes adjacents.


METAR-TAF: